| time (UTC) | temp C | wind direction | speed KPH | gust KPH | rain 1hr cm | rain 24hr cm | rain mn cm | humidity % | barometer mb |
| 20260502123031 | 10 | 266 | 3.2 | 8.0 | 0.00 | 0.00 | 0.00 | 34 | 1019.9 |
| 20260502121526 | 10 | 257 | 8.0 | 9.7 | 0.00 | 0.00 | 0.00 | 34 | 1019.9 |
| 20260502114526 | 9 | 294 | 1.6 | 6.4 | 0.00 | 0.00 | 0.00 | 36 | 1019.8 |
| 20260502113029 | 10 | 255 | 1.6 | 3.2 | 0.00 | 0.00 | 0.00 | 36 | 1019.8 |
| 20260502111523 | 10 | 265 | 3.2 | 4.8 | 0.00 | 0.00 | 0.00 | 34 | 1019.8 |
| 20260502110028 | 11 | 244 | 9.7 | 12.9 | 0.00 | 0.00 | 0.00 | 32 | 1019.8 |
| 20260502104527 | 11 | 244 | 9.7 | 14.5 | 0.00 | 0.00 | 0.00 | 33 | 1019.8 |
| 20260502103026 | 11 | 240 | 11.3 | 12.9 | 0.00 | 0.00 | 0.00 | 33 | 1019.8 |
| 20260502101524 | 12 | 304 | 9.7 | 12.9 | 0.00 | 0.00 | 0.00 | 32 | 1019.8 |
| 20260502091514 | 12 | 279 | 0.0 | 3.2 | 0.00 | 0.00 | 0.00 | 30 | 1019.8 |
| 20260502071507 | 12 | 228 | 6.4 | 11.3 | 0.00 | 0.00 | 0.00 | 28 | 1020.0 |
| 20260502070019 | 13 | 203 | 6.4 | 11.3 | 0.00 | 0.00 | 0.00 | 27 | 1020.0 |
| 20260502064519 | 14 | 227 | 4.8 | 8.0 | 0.00 | 0.00 | 0.00 | 26 | 1019.9 |
| 20260502063025 | 15 | 131 | 1.6 | 3.2 | 0.00 | 0.00 | 0.00 | 25 | 1020.0 |
| 20260502061529 | 15 | 63 | 0.0 | 3.2 | 0.00 | 0.00 | 0.00 | 25 | 1019.8 |
| 20260502060011 | 15 | 44 | 3.2 | 11.3 | 0.00 | 0.00 | 0.00 | 25 | 1019.8 |
| 20260502054517 | 16 | 354 | 4.8 | 12.9 | 0.00 | 0.00 | 0.00 | 24 | 1019.8 |
| 20260502053022 | 16 | 46 | 8.0 | 20.9 | 0.00 | 0.00 | 0.00 | 25 | 1019.6 |
| 20260502051531 | 15 | 15 | 4.8 | 11.3 | 0.00 | 0.00 | 0.00 | 25 | 1019.7 |
| 20260502050030 | 16 | 46 | 1.6 | 8.0 | 0.00 | 0.00 | 0.00 | 23 | 1019.6 |
| 20260502044515 | 15 | 4 | 1.6 | 4.8 | 0.00 | 0.00 | 0.00 | 22 | 1019.4 |
| 20260502043018 | 16 | 299 | 0.0 | 3.2 | 0.00 | 0.00 | 0.00 | 21 | 1018.9 |
| 20260502041524 | 17 | 16 | 3.2 | 6.4 | 0.00 | 0.00 | 0.00 | 20 | 1018.4 |
| 20260502040028 | 17 | 351 | 3.2 | 8.0 | 0.00 | 0.00 | 0.00 | 20 | 1018.0 |
| 20260502034528 | 17 | 36 | 6.4 | 12.9 | 0.00 | 0.00 | 0.00 | 19 | 1017.8 |
| 20260502033013 | 17 | 52 | 8.0 | 16.1 | 0.00 | 0.00 | 0.00 | 19 | 1017.7 |
| 20260502031522 | 18 | 9 | 8.0 | 16.1 | 0.00 | 0.00 | 0.00 | 19 | 1017.4 |
| 20260502030025 | 18 | 318 | 11.3 | 19.3 | 0.00 | 0.00 | 0.00 | 19 | 1017.2 |
| 20260502024530 | 18 | 323 | 9.7 | 20.9 | 0.00 | 0.00 | 0.00 | 18 | 1017.1 |
| 20260502023028 | 19 | 18 | 16.1 | 33.8 | 0.00 | 0.00 | 0.00 | 18 | 1016.7 |
| 20260502021516 | 20 | 336 | 9.7 | 24.1 | 0.00 | 0.00 | 0.00 | 16 | 1016.2 |
| 20260502020022 | 21 | 357 | 6.4 | 14.5 | 0.00 | 0.00 | 0.00 | 14 | 1016.0 |
| 20260502014529 | 21 | 353 | 4.8 | 11.3 | 0.00 | 0.00 | 0.00 | 14 | 1015.9 |
| 20260502013029 | 20 | 4 | 9.7 | 14.5 | 0.00 | 0.00 | 0.00 | 14 | 1015.7 |
| 20260502011528 | 21 | 23 | 6.4 | 19.3 | 0.00 | 0.00 | 0.00 | 15 | 1015.7 |
| 20260502010025 | 21 | 335 | 6.4 | 17.7 | 0.00 | 0.00 | 0.00 | 14 | 1015.6 |
| 20260502004522 | 21 | 349 | 6.4 | 16.1 | 0.00 | 0.00 | 0.00 | 15 | 1015.6 |
| 20260502003028 | 21 | 299 | 6.4 | 16.1 | 0.00 | 0.00 | 0.00 | 14 | 1015.6 |
| 20260502001510 | 21 | 14 | 6.4 | 16.1 | 0.00 | 0.00 | 0.00 | 14 | 1015.5 |
| 20260502000019 | 22 | 342 | 8.0 | 20.9 | 0.00 | 0.00 | 0.00 | 13 | 1015.7 |
| 20260501234519 | 22 | 355 | 4.8 | 19.3 | 0.00 | 0.00 | 0.00 | 13 | 1015.6 |
| 20260501233027 | 23 | 131 | 6.4 | 19.3 | 0.00 | 0.00 | 0.00 | 13 | 1015.5 |
| 20260501231528 | 22 | 172 | 8.0 | 16.1 | 0.00 | 0.00 | 0.00 | 13 | 1015.5 |
| 20260501230014 | 23 | 261 | 9.7 | 17.7 | 0.00 | 0.00 | 0.00 | 13 | 1015.3 |
| 20260501224520 | 22 | 351 | 4.8 | 19.3 | 0.00 | 0.00 | 0.00 | 13 | 1015.4 |
| 20260501223021 | 22 | 117 | 4.8 | 12.9 | 0.00 | 0.00 | 0.00 | 13 | 1015.7 |
| 20260501221528 | 22 | 3 | 8.0 | 14.5 | 0.00 | 0.00 | 0.00 | 13 | 1016.0 |
| 20260501220026 | 23 | 329 | 8.0 | 17.7 | 0.00 | 0.00 | 0.00 | 12 | 1015.8 |
| 20260501214529 | 23 | 319 | 8.0 | 17.7 | 0.00 | 0.00 | 0.00 | 12 | 1016.0 |
| 20260501213019 | 24 | 49 | 6.4 | 16.1 | 0.00 | 0.00 | 0.00 | 11 | 1016.2 |
| 20260501211526 | 22 | 156 | 1.6 | 16.1 | 0.00 | 0.00 | 0.00 | 12 | 1016.5 |
| 20260501210025 | 22 | 18 | 8.0 | 14.5 | 0.00 | 0.00 | 0.00 | 14 | 1016.7 |
| 20260501204527 | 21 | 9 | 11.3 | 17.7 | 0.00 | 0.00 | 0.00 | 13 | 1016.7 |
| 20260501203018 | 21 | 327 | 8.0 | 20.9 | 0.00 | 0.00 | 0.00 | 13 | 1017.0 |
| 20260501201520 | 21 | 86 | 3.2 | 22.5 | 0.00 | 0.00 | 0.00 | 14 | 1017.0 |
| 20260501200033 | 21 | 180 | 8.0 | 16.1 | 0.00 | 0.00 | 0.00 | 14 | 1017.2 |
| 20260501194535 | 21 | 38 | 14.5 | 35.4 | 0.00 | 0.00 | 0.00 | 14 | 1017.0 |
| 20260501193029 | 21 | 26 | 4.8 | 25.7 | 0.00 | 0.00 | 0.00 | 14 | 1017.1 |
| 20260501191522 | 21 | 298 | 4.8 | 14.5 | 0.00 | 0.00 | 0.00 | 14 | 1017.5 |
| 20260501190037 | 22 | 21 | 8.0 | 16.1 | 0.00 | 0.00 | 0.00 | 14 | 1017.6 |
| 20260501184528 | 22 | 133 | 3.2 | 11.3 | 0.00 | 0.00 | 0.00 | 15 | 1017.8 |
| 20260501183026 | 21 | 131 | 3.2 | 8.0 | 0.00 | 0.00 | 0.00 | 16 | 1018.2 |
| 20260501181530 | 20 | 303 | 3.2 | 9.7 | 0.00 | 0.00 | 0.00 | 17 | 1018.3 |
| 20260501180027 | 20 | 98 | 4.8 | 14.5 | 0.00 | 0.00 | 0.00 | 18 | 1018.4 |
| 20260501174526 | 20 | 349 | 3.2 | 20.9 | 0.00 | 0.00 | 0.00 | 20 | 1018.5 |
| 20260501173033 | 20 | 326 | 6.4 | 19.3 | 0.00 | 0.00 | 0.00 | 19 | 1018.5 |
| 20260501171534 | 20 | 114 | 3.2 | 12.9 | 0.00 | 0.00 | 0.00 | 20 | 1018.4 |
| 20260501170030 | 19 | 131 | 3.2 | 8.0 | 0.00 | 0.00 | 0.00 | 20 | 1018.3 |
| 20260501164522 | 18 | 320 | 3.2 | 6.4 | 0.00 | 0.00 | 0.00 | 19 | 1018.4 |
| 20260501163024 | 18 | 8 | 1.6 | 4.8 | 0.00 | 0.00 | 0.00 | 21 | 1018.3 |
| 20260501161526 | 18 | 292 | 1.6 | 8.0 | 0.00 | 0.00 | 0.00 | 20 | 1018.1 |
| 20260501160027 | 17 | 311 | 1.6 | 6.4 | 0.00 | 0.00 | 0.00 | 22 | 1018.1 |
| 20260501154528 | 17 | 2 | 3.2 | 8.0 | 0.00 | 0.00 | 0.00 | 23 | 1018.0 |
| 20260501153004 | 16 | 5 | 4.8 | 8.0 | 0.00 | 0.00 | 0.00 | 24 | 1017.9 |
| 20260501151510 | 15 | 1 | 3.2 | 9.7 | 0.00 | 0.00 | 0.00 | 24 | 1017.9 |
| 20260501150010 | 15 | 65 | 3.2 | 8.0 | 0.00 | 0.00 | 0.00 | 22 | 1017.7 |
| 20260501144526 | 15 | 352 | 3.2 | 6.4 | 0.00 | 0.00 | 0.00 | 22 | 1017.7 |
| 20260501143004 | 14 | 304 | 1.6 | 4.8 | 0.00 | 0.00 | 0.00 | 23 | 1017.3 |